Location: Atherton
(17.2661°S, 145.4859°E)
Time: 00:38:37
(UTC+10:00)

Vanguard 1 - Pass Details

Date: 02 July 2025
Orbit: 649 x 3822 km, 34.2° (Epoch: 17 July)

Event Time Altitude Azimuth Distance (km) Brightness Sun altitude
Rises 20:58:09 0° 250° (WSW) 6,959 15.0 -42.0°
Reaches altitude 10° 21:04:19 10° 241° (WSW) 5,396 14.2 -43.4°
Enters shadow 21:13:58 29° 204° (SSW) 3,090 12.5 -45.6°
Maximum altitude 21:16:26 31° 183° (S) 2,732 - -46.2°
Drops below altitude 10° 21:23:42 10° 122° (ESE) 3,202 - -47.9°
Sets 21:26:19 0° 110° (ESE) 3,859 - -48.5°
